Terminal Aerodrome Forecast
Issued by NWS

Home | Current Version | Previous Version | Text Only | Print | Product List | Glossary On
Versions: 1 2 3 4 5 6 7 8 9 10 11 12 13 14 15 16 17
000
FTUS45 KTFX 230500
TAFHVR
TAF
KHVR 230520Z 2306/2406 28020KT P6SM VCSH SCT050 OVC080
     FM231600 29013KT P6SM BKN070
     FM232100 25011KT P6SM SCT120=

USA.gov is the U.S. government's official web portal to all federal, state and local government web resources and services.